Skip Page Navigation
NASA JPL Caltech
NASA Logo - Jet Propulsion Laboratory + View the NASA Portal
+ Near-Earth Object (NEO) Program
Search JPL
JPL Home Earth Solar System Stars & Galaxies Technology
JPL Solar System Dynamics
BODIES ORBITS EPHEMERIDES TOOLS PHYSICAL DATA DISCOVERY FAQ SITE MAP
JPL Small-Body Database Browser
Search: [ help ]  
4581 Asclepius (1989 FC)
Classification: Apollo [NEO, PHA]          SPK-ID: 2004581
Ephemeris | Orbit Diagram | Orbital Elements | Physical Parameters | Discovery Circumstances | Close-Approach Data ]

[ show orbit diagram ]
Orbital Elements at Epoch 2456646.5 (2013-Dec-20.0) TDB
Reference: JPL 53 (heliocentric ecliptic J2000)
 Element Value Uncertainty (1-sigma)   Units 
e .3570631152827726 1.3699e-07  
a 1.022394755408817 1.0442e-08 au
q .6573352989937767 1.3537e-07 au
i 4.919071479837801 5.6615e-06 deg
node 180.3003542311523 7.3568e-05 deg
peri 255.3007795364342 7.2447e-05 deg
M 42.95258968733214 5.0218e-06 deg
tp 2456601.448090922595
(2013-Nov-04.94809092)
5.2242e-06 JED
period 377.5950969645288
1.03
5.7849e-06
1.584e-08
d
yr
n .9534022101823486 1.4606e-08 deg/d
Q 1.387454211823858 1.4171e-08 au

Additional Model Parameters
 Parameter Value Uncertainty (1-sigma) 
A2 [EST] -4.131602366468109E-14 1.177E-14
ALN [SET] 1. n/a
NK [SET] 0. n/a
NM [SET] 2. n/a
R0 [SET] 1. n/a
  Orbit Determination Parameters
   # obs. used (total)      180  
   # delay obs. used      2  
   # Doppler obs. used      2  
   data-arc span      9628 days (26.36 yr)  
   first obs. used      1989-03-31  
   last obs. used      2015-08-10  
   planetary ephem.      DE431  
   SB-pert. ephem.      SB431-BIG16  
   condition code      0  
   fit RMS      .48878  
   data source      ORB  
   producer      Otto Matic  
   solution date      2016-Jan-05 09:50:41  

Additional Information
 Earth MOID = .00335152 au 
 Jupiter MOID = 3.88524 au 
 T_jup = 5.914 
 Nongravitational accels. using nonstandard g(r) = (1 AU/ r)^2 
[ show covariance matrix ]

Ephemeris | Orbit Diagram | Orbital Elements | Physical Parameters | Discovery Circumstances | Close-Approach Data ]

Physical Parameter Table
Parameter Symbol Value Units Sigma Reference Notes
absolute magnitude H 20.7 mag n/a MPO267726  

4581 Asclepius (1989 FC)          Discovered 1989-Mar-31 by Holt and Thomas at Palomar
Reference: DISCOVERY.DBLast Updated: 2003-08-29

[ hide close-approach data ]
Close-Approach Data   ...sorted by Date/Time (TDB)
Date/Time (TDB) Time Uncertainty
(days_HH:MM)
Body Nominal Distance (au) Minimum Distance (au) Maximum Distance (au) V-relative (km/s) V-infinity (km/s) JD (TDB) Time Uncertainty (minutes) Semi-major axis (km) Semi-minor axis (km) range-LOV angle (deg) N-sigma BP Orbit Ref. Reference Modified
1901-Jun-27 09:31 00:13 Venus 0.110608862578221 0.110325947101473 0.110892778210326 12.648986570078 12.6474343620131 2415562.896621502 13.3527775661589 18968.6858911434 12.7434051488449 43.8758356893615 696927.158427128 T 53 CATAB v2.0c-linF95 2016-Jan-05 09:50:53 2016-Jan-05 09:50
1909-Aug-01 16:38 00:07 Earth 0.448304904942802 0.447852820845329 0.448757007846931 23.8752226125193 23.8749736730836 2418520.192912373 7.345233737488 22915.4747962328 10.2623388850877 -6.05037371402052 623564.87860453 T 53 CATAB v2.0c-linF95 2016-Jan-05 09:50:53 2016-Jan-05 09:50
1910-Aug-13 20:19 00:12 Earth 0.197634404106317 0.197074949255823 0.198193800987823 16.2627600746838 16.2619310516011 2418897.346304876 11.5149378934028 26558.1976154894 10.7084124691013 -12.6981126013532 500066.290557491 T 53 CATAB v2.0c-linF95 2016-Jan-05 09:50:53 2016-Jan-05 09:50
1911-Aug-25 23:52 00:14 Earth 0.0826515372691226 0.0820923458116016 0.0832147860338385 8.73198875831722 8.72829609176841 2419274.494462785 14.1803149822425 18468.8386336003 9.41850144690794 41.9611978021957 540806.236631642 T 53 CATAB v2.0c-linF95 2016-Jan-05 09:50:53 2016-Jan-05 09:50
1911-Oct-18 21:50 01:33 Venus 0.0513769674330784 0.0508077355355058 0.0519489899698733 8.32504196488537 8.31996333531071 2419328.409805426 93.4060809355027 16130.8247578535 14.2345690228941 18.3556662974358 106365.417633837 T 53 CATAB v2.0c-linF95 2016-Jan-05 09:50:53 2016-Jan-05 09:50
1912-Jul-21 03:05 01:41 Earth 0.2978543999094 0.297485839693919 0.298223511544034 7.42334470620426 7.42213954827137 2419604.628460334 100.605119285973 6274.05597064041 18.3303675443676 7.35883236380455 172319.331885829 T 53 CATAB v2.0c-linF95 2016-Jan-05 09:50:53 2016-Jan-05 09:50
1912-Oct-21 17:43 02:39 Earth 0.278399307052067 0.278372834887317 0.278425898529135 9.74509245671006 9.74411030149143 2419697.238103629 158.504078455779 6047.14828691107 18.4609123804863 -81.7213623377224 1469369.68984143 T 53 CATAB v2.0c-linF95 2016-Jan-05 09:50:53 2016-Jan-05 09:50
1913-Jun-21 06:39 01:32 Earth 0.382143948109564 0.382026610949708 0.382261321573222 8.89268431662243 8.89190021628244 2419939.776828513 92.2390026669769 2695.54711266995 25.4313540907778 19.9647949808921 478680.81191852 T 53 CATAB v2.0c-linF95 2016-Jan-05 09:50:53 2016-Jan-05 09:50
1913-Dec-01 07:03 02:43 Earth 0.329612352644548 0.329610838930125 0.329613882589532 12.4080751149111 12.4074236127427 2420102.793528398 162.63527469996 3022.97442619441 24.8606157465113 -89.0391617355101 1475262.17465664 T 53 CATAB v2.0c-linF95 2016-Jan-05 09:50:53 2016-Jan-05 09:50
1914-May-27 16:19 01:33 Earth 0.387762014663334 0.38768337274594 0.387840671612676 9.10560658934999 9.10485192087493 2420280.180033017 92.9145155938442 2420.76898617134 23.7868769644839 -36.5578570558382 918947.539816106 T 53 CATAB v2.0c-linF95 2016-Jan-05 09:50:53 2016-Jan-05 09:50
1915-Jan-08 21:06 02:57 Earth 0.303339205186512 0.303307518615844 0.303370893410516 10.7989624837019 10.7981490575394 2420506.379035124 176.63863258354 1346.56174939788 16.4087690099038 -35.2573095415338 1110784.20877873 T 53 CATAB v2.0c-linF95 2016-Jan-05 09:50:53 2016-Jan-05 09:50
1915-Apr-30 19:19 01:44 Earth 0.320146210071943 0.319817967208672 0.32047477177673 8.13603170799134 8.13500870085379 2420618.305025557 103.792164127786 7006.5412162584 17.6948073773778 -16.781185115189 460475.919410302 T 53 CATAB v2.0c-linF95 2016-Jan-05 09:50:53 2016-Jan-05 09:50
1916-Mar-20 07:47 00:13 Earth 0.132291360476993 0.131488224909592 0.133099215412254 7.07111410506647 7.06826518328851 2420942.824101091 12.7248838538217 14313.8941457986 3.7326666050203 0.228376789472374 9632.86586861473 T 53 CATAB v2.0c-linF95 2016-Jan-05 09:50:53 2016-Jan-05 09:50
1917-Mar-28 02:27 00:15 Earth 0.136134995540042 0.135320408858716 0.136948990721312 14.7286070348372 14.7272781097709 2421315.601868498 15.3726398033183 35750.3033253841 2.76446783212493 -0.76689929137749 76316.2197571506 T 53 CATAB v2.0c-linF95 2016-Jan-05 09:50:53 2016-Jan-05 09:50
1918-Apr-09 04:10 00:12 Earth 0.401024416995756 0.400245947556556 0.401802894832075 22.7039176062059 22.703624959569 2421692.673526745 12.2906685803488 38901.5682212609 2.86416543917522 -0.683644012882903 222115.819786967 T 53 CATAB v2.0c-linF95 2016-Jan-05 09:50:53 2016-Jan-05 09:50
1922-Mar-14 22:00 00:22 Venus 0.115093230321761 0.114204998465212 0.115980798887476 15.2074766304928 15.2062358935168 2423128.416759371 21.6449925744915 40552.6670029416 11.6994101925731 -4.16057629339193 87837.6255676282 T 53 CATAB v2.0c-linF95 2016-Jan-05 09:50:53 2016-Jan-05 09:50
1925-Jun-21 16:46 00:30 Venus 0.0919985450097109 0.0917103615045241 0.0922918339877203 10.8764619706187 10.8742915511551 2424323.198745019 29.5841894930698 28718.3993856322 12.1428477247953 57.4994193769752 693039.697035418 T 53 CATAB v2.0c-linF95 2016-Jan-05 09:50:53 2016-Jan-05 09:50
1933-Jul-31 05:26 00:05 Earth 0.481443821293416 0.481120181452608 0.481767472877484 24.8893116597645 24.8890893002109 2427284.726192222 4.89345821001269 16477.1806225654 9.83949611421125 -5.87904369757776 683666.06814927 T 53 CATAB v2.0c-linF95 2016-Jan-05 09:50:53 2016-Jan-05 09:50
1934-Aug-12 14:25 00:06 Earth 0.22610509594611 0.225811550472614 0.22639862851899 17.1468367453361 17.1461494764281 2427662.100471098 5.60136163392114 14119.8401925355 10.4378933422767 -11.253407158393 529660.486032526 T 53 CATAB v2.0c-linF95 2016-Jan-05 09:50:53 2016-Jan-05 09:50
1935-Aug-25 00:10 00:05 Earth 0.0641727299716769 0.0639931737758154 0.064353114116594 9.44008626720856 9.43568693167048 2428039.506959352 5.41034595970504 7946.35593834047 9.27457475729284 52.7188598906098 531774.081291891 T 53 CATAB v2.0c-linF95 2016-Jan-05 09:50:53 2016-Jan-05 09:50
1935-Oct-23 04:20 00:44 Venus 0.0681516193576793 0.0679894550207573 0.0683140293014446 8.19109068790806 8.18719975095809 2428098.680706280 43.7408926457794 5024.13812332377 14.8984275602198 31.240228067097 220292.242630383 T 53 CATAB v2.0c-linF95 2016-Jan-05 09:50:53 2016-Jan-05 09:50
1936-Jul-24 07:00 00:32 Earth 0.287241476122349 0.287122616640693 0.287360406429951 7.23154340563599 7.23026056492996 2428373.791668402 32.0432989711988 1792.19017270289 17.1222020839283 6.37246076402579 151822.559761376 T 53 CATAB v2.0c-linF95 2016-Jan-05 09:50:53 2016-Jan-05 09:50
1936-Oct-18 03:04 00:48 Earth 0.270407195837202 0.270400283487042 0.270414120199006 9.33339098859725 9.33233519452999 2428459.627578525 47.7185601486888 1843.26729356826 16.5538003583045 -83.1172476545051 1557473.01485106 T 53 CATAB v2.0c-linF95 2016-Jan-05 09:50:53 2016-Jan-05 09:50
1937-Jun-22 23:32 00:23 Earth 0.380072790078141 0.380049701150333 0.380095882022531 8.84756958767072 8.84677719392524 2428707.480246526 23.0713313820433 359.753307716735 25.2998559603322 23.9127237819099 573296.463716174 T 53 CATAB v2.0c-linF95 2016-Jan-05 09:50:53 2016-Jan-05 09:50
1937-Nov-29 04:11 00:36 Earth 0.328711568331882 0.328702640399944 0.328720503641035 12.3641128837994 12.363457273268 2428866.674234750 36.3217575774933 702.498945907758 23.8058722998304 87.2135309350887 1532380.0736615 T 53 CATAB v2.0c-linF95 2016-Jan-05 09:50:53 2016-Jan-05 09:50
